Location: Unspecified
(0.0000°N, 0.0000°E)
Time: 09:50:52
(UTC+02:00)

Haruka - Visible Passes

Search period start: 31 May 2016 00:00
Search period end: 10 June 2016 00:00
Orbit: 533 x 21230 km, 31.2° (Epoch: 30 May)

Date Brightness Start Highest point End Pass type
(mag) Time Alt. Az. Time Alt. Az. Time Alt. Az.
31 May 7.3 17:21:41 10° WSW 19:31:52 33° W 22:11:21 10° NE visible
01 Jun 6.9 19:17:18 10° WSW 20:35:01 14° W 23:19:42 10° NNE visible
02 Jun 5.3 05:57:28 17° SSE 05:57:28 17° SSE 06:00:48 10° SSE visible
03 Jun 6.6 00:04:51 10° NW 00:21:51 18° N 00:25:15 16° N visible
03 Jun 5.3 07:02:05 11° SW 07:05:50 16° S 07:13:50 10° SE visible
04 Jun 6.8 01:26:17 10° NW 01:29:42 14° NNW 01:29:42 14° NNW visible
05 Jun 7.5 16:13:58 10° WSW 20:26:22 43° NW 21:14:54 10° NE visible
06 Jun 7.1 17:43:50 10° WSW 19:33:57 25° W 22:23:41 10° NE visible
07 Jun 6.6 22:38:09 10° WNW 23:23:02 23° NNW 23:31:21 13° NNE visible
08 Jun 5.6 06:08:59 13° S 06:08:59 13° S 06:12:21 10° SSE visible
09 Jun 6.4 00:22:51 10° NW 00:35:48 20° N 00:35:48 20° N visible
09 Jun 5.8 07:15:01 10° SSW 07:19:48 15° S 07:29:15 10° SE visible
